Terminal Aerodrome Forecast
Issued by NWS Wilmington, OH

Current Version | Previous Version | Graphics & Text | Print | Product List | Glossary On
Versions: 1 2 3 4 5 6 7 8 9 10 11 12 13 14 15 16 17 18 19 20 21 22 23 24 25 26 27 28 29 30 31
000
FTUS41 KILN 211700
TAFDAY
TAF
KDAY 211731Z 2118/2218 29021G31KT P6SM FEW030
     FM211900 28021G31KT P6SM BKN040
     FM220000 31014KT P6SM OVC022
     FM221300 34009KT P6SM SCT025=

USA.gov is the U.S. government's official web portal to all federal, state and local government web resources and services.